| time (UTC) | temp F | wind direction | speed MPH | gust MPH | rain 1hr in | rain 24hr in | rain mn in | humidity % | barometer mb |
| 20260903115659 | 79 | 162 | 0.0 | 0.0 | 0.00 | 0.00 | 0.00 | 67 | 1014.8 |
| 20260903115154 | 79 | 214 | 3.0 | 3.0 | 0.00 | 0.00 | 0.00 | 67 | 1014.9 |
| 20260903114649 | 79 | 158 | 0.0 | 1.0 | 0.00 | 0.00 | 0.00 | 67 | 1014.8 |
| 20260903114144 | 79 | 219 | 1.0 | 1.0 | 0.00 | 0.00 | 0.00 | 67 | 1014.9 |
| 20260903113639 | 79 | 199 | 1.0 | 2.0 | 0.00 | 0.00 | 0.00 | 67 | 1014.7 |
| 20260903113136 | 79 | 192 | 3.0 | 3.0 | 0.00 | 0.00 | 0.00 | 67 | 1015.0 |
| 20260903112632 | 79 | 190 | 2.0 | 2.0 | 0.00 | 0.00 | 0.00 | 67 | 1014.9 |
| 20260903112126 | 78 | 215 | 3.0 | 5.0 | 0.00 | 0.00 | 0.00 | 67 | 1015.0 |
| 20260903111625 | 78 | 170 | 0.0 | 1.0 | 0.00 | 0.00 | 0.00 | 67 | 1014.9 |
| 20260903111121 | 78 | 213 | 1.0 | 1.0 | 0.00 | 0.00 | 0.00 | 67 | 1014.7 |
| 20260903110617 | 78 | 218 | 0.0 | 0.0 | 0.00 | 0.00 | 0.00 | 67 | 1014.6 |
| 20260903110112 | 79 | 189 | 2.0 | 2.0 | 0.00 | 0.00 | 0.00 | 67 | 1014.7 |
| 20260903105607 | 78 | 205 | 2.0 | 2.0 | 0.00 | 0.00 | 0.00 | 67 | 1014.7 |
| 20260903105102 | 78 | 194 | 3.0 | 5.0 | 0.00 | 0.00 | 0.00 | 68 | 1014.8 |
| 20260903104602 | 78 | 204 | 3.0 | 3.0 | 0.00 | 0.00 | 0.00 | 68 | 1015.0 |
| 20260903104057 | 78 | 211 | 0.0 | 1.0 | 0.00 | 0.00 | 0.00 | 69 | 1014.8 |
| 20260903103553 | 78 | 190 | 3.0 | 5.0 | 0.00 | 0.00 | 0.00 | 69 | 1014.9 |
| 20260903103049 | 78 | 137 | 0.0 | 1.0 | 0.00 | 0.00 | 0.00 | 69 | 1015.3 |
| 20260903102544 | 78 | 171 | 0.0 | 0.0 | 0.00 | 0.00 | 0.00 | 70 | 1015.0 |
| 20260903102043 | 78 | 145 | 1.0 | 2.0 | 0.00 | 0.00 | 0.00 | 70 | 1014.9 |
| 20260903101538 | 78 | 190 | 1.0 | 1.0 | 0.00 | 0.00 | 0.00 | 70 | 1015.1 |
| 20260903101033 | 78 | 198 | 2.0 | 2.0 | 0.00 | 0.00 | 0.00 | 69 | 1015.1 |
| 20260903100528 | 78 | 195 | 3.0 | 3.0 | 0.00 | 0.00 | 0.00 | 69 | 1015.0 |
| 20260903100027 | 78 | 248 | 4.0 | 5.0 | 0.00 | 0.00 | 0.00 | 69 | 1015.1 |
| 20260903095525 | 78 | 222 | 0.0 | 0.0 | 0.00 | 0.00 | 0.00 | 70 | 1015.1 |
| 20260903095020 | 78 | 190 | 1.0 | 1.0 | 0.00 | 0.00 | 0.00 | 69 | 1015.0 |
| 20260903094520 | 78 | 206 | 3.0 | 5.0 | 0.00 | 0.00 | 0.00 | 69 | 1015.0 |
| 20260903094016 | 78 | 158 | 4.0 | 6.0 | 0.00 | 0.00 | 0.00 | 69 | 1014.9 |
| 20260903093516 | 78 | 211 | 3.0 | 3.0 | 0.00 | 0.00 | 0.00 | 69 | 1014.9 |
| 20260903093011 | 78 | 209 | 5.0 | 6.0 | 0.00 | 0.00 | 0.00 | 69 | 1015.0 |
| 20260903092511 | 78 | 172 | 3.0 | 3.0 | 0.00 | 0.00 | 0.00 | 69 | 1015.0 |
| 20260903092010 | 78 | 192 | 4.0 | 6.0 | 0.00 | 0.00 | 0.00 | 69 | 1015.4 |
| 20260903091509 | 78 | 232 | 0.0 | 0.0 | 0.00 | 0.00 | 0.00 | 69 | 1015.4 |
| 20260903091003 | 78 | 175 | 1.0 | 1.0 | 0.00 | 0.00 | 0.00 | 69 | 1015.1 |
| 20260903090500 | 78 | 191 | 3.0 | 5.0 | 0.00 | 0.00 | 0.00 | 69 | 1015.1 |
| 20260903085957 | 79 | 192 | 2.0 | 2.0 | 0.00 | 0.00 | 0.00 | 69 | 1014.9 |
| 20260903085456 | 79 | 154 | 3.0 | 5.0 | 0.00 | 0.00 | 0.00 | 69 | 1015.3 |
| 20260903084952 | 79 | 203 | 4.0 | 5.0 | 0.00 | 0.00 | 0.00 | 68 | 1015.5 |
| 20260903084450 | 79 | 193 | 1.0 | 2.0 | 0.00 | 0.00 | 0.00 | 68 | 1015.6 |
| 20260903083945 | 79 | 190 | 2.0 | 3.0 | 0.00 | 0.00 | 0.00 | 68 | 1015.1 |
| 20260903083441 | 79 | 201 | 1.0 | 2.0 | 0.00 | 0.00 | 0.00 | 68 | 1015.1 |
| 20260903082940 | 79 | 187 | 2.0 | 3.0 | 0.00 | 0.00 | 0.00 | 68 | 1015.0 |
| 20260903082435 | 79 | 186 | 4.0 | 5.0 | 0.00 | 0.00 | 0.00 | 67 | 1015.0 |
| 20260903081930 | 79 | 196 | 1.0 | 1.0 | 0.00 | 0.00 | 0.00 | 68 | 1015.1 |
| 20260903081426 | 79 | 199 | 2.0 | 5.0 | 0.00 | 0.00 | 0.00 | 68 | 1015.3 |
| 20260903080922 | 79 | 198 | 2.0 | 3.0 | 0.00 | 0.00 | 0.00 | 67 | 1015.4 |
| 20260903080418 | 79 | 191 | 5.0 | 6.0 | 0.00 | 0.00 | 0.00 | 67 | 1015.4 |
| 20260903075913 | 80 | 194 | 3.0 | 3.0 | 0.00 | 0.00 | 0.00 | 66 | 1015.4 |
| 20260903075409 | 80 | 208 | 2.0 | 2.0 | 0.00 | 0.00 | 0.00 | 66 | 1015.0 |
| 20260903074903 | 80 | 191 | 5.0 | 6.0 | 0.00 | 0.00 | 0.00 | 65 | 1015.3 |
| 20260903074357 | 80 | 202 | 2.0 | 2.0 | 0.00 | 0.00 | 0.00 | 66 | 1015.1 |
| 20260903073852 | 80 | 200 | 5.0 | 5.0 | 0.00 | 0.00 | 0.00 | 65 | 1015.1 |
| 20260903073347 | 80 | 165 | 2.0 | 2.0 | 0.00 | 0.00 | 0.00 | 65 | 1015.3 |
| 20260903072843 | 80 | 180 | 0.0 | 1.0 | 0.00 | 0.00 | 0.00 | 66 | 1015.6 |
| 20260903072339 | 80 | 195 | 1.0 | 2.0 | 0.00 | 0.00 | 0.00 | 65 | 1015.5 |
| 20260903071836 | 80 | 208 | 2.0 | 2.0 | 0.00 | 0.00 | 0.00 | 65 | 1015.1 |
| 20260903071331 | 80 | 199 | 3.0 | 3.0 | 0.00 | 0.00 | 0.00 | 65 | 1015.1 |
| 20260903070826 | 81 | 164 | 2.0 | 2.0 | 0.00 | 0.00 | 0.00 | 65 | 1015.5 |
| 20260903070322 | 81 | 191 | 1.0 | 2.0 | 0.00 | 0.00 | 0.00 | 64 | 1015.3 |
| 20260903065816 | 81 | 202 | 1.0 | 2.0 | 0.00 | 0.00 | 0.00 | 64 | 1015.3 |
| 20260903065316 | 81 | 198 | 0.0 | 1.0 | 0.00 | 0.00 | 0.00 | 64 | 1015.1 |
| 20260903064815 | 81 | 207 | 2.0 | 2.0 | 0.00 | 0.00 | 0.00 | 63 | 1015.3 |
| 20260903064311 | 81 | 192 | 4.0 | 5.0 | 0.00 | 0.00 | 0.00 | 63 | 1015.0 |
| 20260903063807 | 81 | 169 | 1.0 | 1.0 | 0.00 | 0.00 | 0.00 | 64 | 1014.9 |
| 20260903063302 | 81 | 148 | 0.0 | 1.0 | 0.00 | 0.00 | 0.00 | 64 | 1015.0 |
| 20260903062757 | 81 | 182 | 0.0 | 1.0 | 0.00 | 0.00 | 0.00 | 64 | 1015.0 |
| 20260903062256 | 81 | 233 | 0.0 | 1.0 | 0.00 | 0.00 | 0.00 | 64 | 1015.1 |
| 20260903061753 | 81 | 198 | 1.0 | 2.0 | 0.00 | 0.00 | 0.00 | 64 | 1014.9 |
| 20260903061252 | 81 | 210 | 2.0 | 2.0 | 0.00 | 0.00 | 0.00 | 64 | 1015.1 |
| 20260903060748 | 81 | 151 | 2.0 | 3.0 | 0.00 | 0.00 | 0.00 | 64 | 1014.9 |
| 20260903060247 | 81 | 173 | 0.0 | 0.0 | 0.00 | 0.00 | 0.00 | 63 | 1015.1 |
| 20260903055745 | 81 | 174 | 1.0 | 2.0 | 0.00 | 0.00 | 0.00 | 63 | 1014.8 |
| 20260903055243 | 81 | 180 | 2.0 | 2.0 | 0.00 | 0.00 | 0.00 | 63 | 1015.1 |
| 20260903054739 | 82 | 186 | 2.0 | 2.0 | 0.00 | 0.00 | 0.00 | 62 | 1015.0 |
| 20260903054234 | 82 | 208 | 1.0 | 2.0 | 0.00 | 0.00 | 0.00 | 62 | 1015.1 |
| 20260903053730 | 82 | 192 | 3.0 | 5.0 | 0.00 | 0.00 | 0.00 | 61 | 1015.4 |
| 20260903053225 | 82 | 183 | 2.0 | 2.0 | 0.00 | 0.00 | 0.00 | 61 | 1015.4 |
| 20260903052720 | 82 | 178 | 3.0 | 5.0 | 0.00 | 0.00 | 0.00 | 60 | 1015.5 |
| 20260903052216 | 82 | 219 | 5.0 | 6.0 | 0.00 | 0.00 | 0.00 | 59 | 1015.6 |
| 20260903051711 | 83 | 205 | 5.0 | 6.0 | 0.00 | 0.00 | 0.00 | 59 | 1015.5 |
| 20260903051206 | 83 | 198 | 4.0 | 6.0 | 0.00 | 0.00 | 0.00 | 57 | 1015.4 |
| 20260903050702 | 83 | 205 | 4.0 | 5.0 | 0.00 | 0.00 | 0.00 | 56 | 1015.4 |
| 20260903050201 | 84 | 261 | 4.0 | 5.0 | 0.00 | 0.00 | 0.00 | 55 | 1015.4 |
| 20260903045655 | 84 | 229 | 5.0 | 6.0 | 0.00 | 0.00 | 0.00 | 53 | 1015.3 |
| 20260903045152 | 84 | 208 | 3.0 | 3.0 | 0.00 | 0.00 | 0.00 | 53 | 1015.1 |
| 20260903044648 | 84 | 196 | 0.0 | 0.0 | 0.00 | 0.00 | 0.00 | 54 | 1015.3 |
| 20260903044143 | 84 | 207 | 2.0 | 2.0 | 0.00 | 0.00 | 0.00 | 53 | 1015.3 |
| 20260903043641 | 84 | 208 | 1.0 | 1.0 | 0.00 | 0.00 | 0.00 | 53 | 1015.3 |
| 20260903043139 | 84 | 200 | 5.0 | 5.0 | 0.00 | 0.00 | 0.00 | 53 | 1015.4 |
| 20260903042638 | 84 | 195 | 0.0 | 0.0 | 0.00 | 0.00 | 0.00 | 54 | 1015.1 |
| 20260903042133 | 84 | 201 | 0.0 | 0.0 | 0.00 | 0.00 | 0.00 | 54 | 1015.0 |
| 20260903041630 | 84 | 193 | 1.0 | 1.0 | 0.00 | 0.00 | 0.00 | 54 | 1015.0 |
| 20260903041126 | 84 | 198 | 0.0 | 1.0 | 0.00 | 0.00 | 0.00 | 54 | 1014.9 |
| 20260903040625 | 84 | 190 | 2.0 | 2.0 | 0.00 | 0.00 | 0.00 | 54 | 1014.8 |
| 20260903040121 | 84 | 204 | 0.0 | 0.0 | 0.00 | 0.00 | 0.00 | 54 | 1015.0 |
| 20260903035616 | 84 | 204 | 0.0 | 1.0 | 0.00 | 0.00 | 0.00 | 54 | 1014.8 |
| 20260903035112 | 84 | 211 | 0.0 | 0.0 | 0.00 | 0.00 | 0.00 | 54 | 1015.0 |
| 20260903034607 | 84 | 202 | 2.0 | 2.0 | 0.00 | 0.00 | 0.00 | 54 | 1014.8 |
| 20260903034102 | 84 | 187 | 1.0 | 1.0 | 0.00 | 0.00 | 0.00 | 54 | 1015.0 |
| 20260903033557 | 84 | 193 | 1.0 | 2.0 | 0.00 | 0.00 | 0.00 | 53 | 1015.0 |
| 20260903033052 | 84 | 213 | 1.0 | 1.0 | 0.00 | 0.00 | 0.00 | 52 | 1014.9 |
| 20260903032547 | 84 | 203 | 2.0 | 3.0 | 0.00 | 0.00 | 0.00 | 52 | 1014.7 |
| 20260903032043 | 85 | 203 | 2.0 | 3.0 | 0.00 | 0.00 | 0.00 | 52 | 1014.6 |
| 20260903031542 | 85 | 189 | 3.0 | 3.0 | 0.00 | 0.00 | 0.00 | 51 | 1014.3 |
| 20260903031037 | 84 | 192 | 3.0 | 3.0 | 0.00 | 0.00 | 0.00 | 51 | 1014.4 |
| 20260903030533 | 84 | 184 | 0.0 | 0.0 | 0.00 | 0.00 | 0.00 | 52 | 1014.2 |
| 20260903030029 | 84 | 176 | 1.0 | 1.0 | 0.00 | 0.00 | 0.00 | 51 | 1014.2 |
| 20260903025524 | 84 | 163 | 1.0 | 2.0 | 0.00 | 0.00 | 0.00 | 52 | 1014.5 |
| 20260903025020 | 84 | 179 | 0.0 | 0.0 | 0.00 | 0.00 | 0.00 | 52 | 1014.4 |
| 20260903024519 | 84 | 145 | 0.0 | 1.0 | 0.00 | 0.00 | 0.00 | 53 | 1014.1 |
| 20260903024014 | 84 | 183 | 0.0 | 1.0 | 0.00 | 0.00 | 0.00 | 52 | 1014.0 |
| 20260903023509 | 85 | 200 | 2.0 | 2.0 | 0.00 | 0.00 | 0.00 | 51 | 1014.1 |
| 20260903023004 | 85 | 186 | 0.0 | 0.0 | 0.00 | 0.00 | 0.00 | 51 | 1014.1 |
| 20260903022504 | 85 | 187 | 0.0 | 1.0 | 0.00 | 0.00 | 0.00 | 50 | 1014.0 |
| 20260903022002 | 85 | 193 | 0.0 | 0.0 | 0.00 | 0.00 | 0.00 | 51 | 1014.1 |
| 20260903021457 | 85 | 189 | 0.0 | 0.0 | 0.00 | 0.00 | 0.00 | 50 | 1014.1 |
| 20260903020952 | 86 | 204 | 1.0 | 2.0 | 0.00 | 0.00 | 0.00 | 49 | 1013.7 |
| 20260903020448 | 86 | 194 | 3.0 | 3.0 | 0.00 | 0.00 | 0.00 | 48 | 1013.8 |
| 20260903015942 | 86 | 217 | 3.0 | 3.0 | 0.00 | 0.00 | 0.00 | 48 | 1014.1 |
| 20260903015438 | 86 | 226 | 4.0 | 5.0 | 0.00 | 0.00 | 0.00 | 47 | 1014.0 |
| 20260903014933 | 86 | 232 | 3.0 | 3.0 | 0.00 | 0.00 | 0.00 | 48 | 1014.0 |
| 20260903014432 | 86 | 228 | 5.0 | 7.0 | 0.00 | 0.00 | 0.00 | 48 | 1013.7 |
| 20260903013927 | 86 | 229 | 3.0 | 5.0 | 0.00 | 0.00 | 0.00 | 48 | 1014.1 |
| 20260903013427 | 86 | 212 | 6.0 | 7.0 | 0.00 | 0.00 | 0.00 | 47 | 1013.7 |
| 20260903012921 | 86 | 205 | 5.0 | 6.0 | 0.00 | 0.00 | 0.00 | 46 | 1013.8 |
| 20260903012420 | 86 | 203 | 6.0 | 7.0 | 0.00 | 0.00 | 0.00 | 49 | 1013.6 |
| 20260903011919 | 87 | 200 | 3.0 | 3.0 | 0.00 | 0.00 | 0.00 | 50 | 1014.0 |
| 20260903011414 | 87 | 194 | 7.0 | 8.0 | 0.00 | 0.00 | 0.00 | 49 | 1013.6 |
| 20260903010909 | 87 | 252 | 7.0 | 8.0 | 0.00 | 0.00 | 0.00 | 48 | 1013.8 |
| 20260903010405 | 87 | 211 | 7.0 | 8.0 | 0.00 | 0.00 | 0.00 | 48 | 1013.4 |
| 20260903005902 | 87 | 224 | 6.0 | 7.0 | 0.00 | 0.00 | 0.00 | 48 | 1013.7 |
| 20260903005358 | 87 | 206 | 5.0 | 6.0 | 0.00 | 0.00 | 0.00 | 48 | 1013.8 |
| 20260903004854 | 88 | 219 | 6.0 | 8.0 | 0.00 | 0.00 | 0.00 | 47 | 1013.6 |
| 20260903004349 | 88 | 239 | 9.0 | 10.0 | 0.00 | 0.00 | 0.00 | 47 | 1013.7 |
| 20260903003845 | 89 | 208 | 8.0 | 9.0 | 0.00 | 0.00 | 0.00 | 46 | 1013.7 |
| 20260903003345 | 90 | 225 | 5.0 | 6.0 | 0.00 | 0.00 | 0.00 | 45 | 1013.6 |
| 20260903002844 | 90 | 277 | 6.0 | 8.0 | 0.00 | 0.00 | 0.00 | 45 | 1013.8 |
| 20260903002339 | 90 | 252 | 6.0 | 7.0 | 0.00 | 0.00 | 0.00 | 44 | 1013.7 |
| 20260903001834 | 89 | 197 | 7.0 | 9.0 | 0.00 | 0.00 | 0.00 | 45 | 1013.6 |
| 20260903001330 | 91 | 271 | 6.0 | 7.0 | 0.00 | 0.00 | 0.00 | 45 | 1013.8 |
| 20260903000829 | 90 | 258 | 7.0 | 8.0 | 0.00 | 0.00 | 0.00 | 44 | 1013.6 |
| 20260903000325 | 91 | 241 | 8.0 | 9.0 | 0.00 | 0.00 | 0.00 | 44 | 1013.5 |
| 20260902235822 | 91 | 199 | 8.0 | 9.0 | 0.00 | 0.00 | 0.00 | 44 | 1013.5 |
| 20260902235317 | 91 | 203 | 7.0 | 9.0 | 0.00 | 0.00 | 0.00 | 43 | 1013.8 |
| 20260902234812 | 90 | 200 | 7.0 | 9.0 | 0.00 | 0.00 | 0.00 | 44 | 1013.8 |
| 20260902234312 | 90 | 209 | 7.0 | 8.0 | 0.00 | 0.00 | 0.00 | 45 | 1013.7 |
| 20260902233811 | 90 | 216 | 7.0 | 10.0 | 0.00 | 0.00 | 0.00 | 43 | 1014.0 |
| 20260902233311 | 91 | 262 | 6.0 | 7.0 | 0.00 | 0.00 | 0.00 | 43 | 1013.7 |
| 20260902232809 | 91 | 226 | 7.0 | 8.0 | 0.00 | 0.00 | 0.00 | 42 | 1014.0 |
| 20260902232306 | 90 | 220 | 8.0 | 9.0 | 0.00 | 0.00 | 0.00 | 43 | 1014.0 |
| 20260902231803 | 90 | 201 | 8.0 | 9.0 | 0.00 | 0.00 | 0.00 | 44 | 1013.8 |
| 20260902231258 | 91 | 219 | 6.0 | 7.0 | 0.00 | 0.00 | 0.00 | 45 | 1014.1 |
| 20260902230753 | 90 | 244 | 8.0 | 10.0 | 0.00 | 0.00 | 0.00 | 45 | 1014.0 |
| 20260902230252 | 90 | 246 | 7.0 | 9.0 | 0.00 | 0.00 | 0.00 | 45 | 1014.2 |
| 20260902225747 | 90 | 198 | 8.0 | 9.0 | 0.00 | 0.00 | 0.00 | 46 | 1014.1 |
| 20260902225242 | 90 | 209 | 7.0 | 8.0 | 0.00 | 0.00 | 0.00 | 48 | 1014.3 |
| 20260902224740 | 89 | 258 | 6.0 | 7.0 | 0.00 | 0.00 | 0.00 | 48 | 1014.2 |
| 20260902224236 | 88 | 237 | 5.0 | 6.0 | 0.00 | 0.00 | 0.00 | 48 | 1014.3 |
| 20260902223732 | 89 | 218 | 9.0 | 11.0 | 0.00 | 0.00 | 0.00 | 48 | 1014.4 |
| 20260902223231 | 89 | 264 | 9.0 | 11.0 | 0.00 | 0.00 | 0.00 | 48 | 1014.4 |
| 20260902222730 | 88 | 253 | 6.0 | 7.0 | 0.00 | 0.00 | 0.00 | 49 | 1014.3 |
| 20260902222225 | 88 | 223 | 8.0 | 9.0 | 0.00 | 0.00 | 0.00 | 49 | 1014.6 |
| 20260902221720 | 86 | 197 | 4.0 | 5.0 | 0.00 | 0.00 | 0.00 | 52 | 1014.4 |
| 20260902221219 | 86 | 219 | 6.0 | 7.0 | 0.00 | 0.00 | 0.00 | 50 | 1014.5 |
| 20260902220715 | 86 | 211 | 8.0 | 9.0 | 0.00 | 0.00 | 0.00 | 48 | 1014.6 |
| 20260902220214 | 86 | 221 | 5.0 | 6.0 | 0.00 | 0.00 | 0.00 | 49 | 1014.7 |
| 20260902215710 | 86 | 250 | 6.0 | 7.0 | 0.00 | 0.00 | 0.00 | 50 | 1014.6 |
| 20260902215205 | 86 | 236 | 5.0 | 7.0 | 0.00 | 0.00 | 0.00 | 50 | 1014.6 |
| 20260902214700 | 86 | 219 | 5.0 | 7.0 | 0.00 | 0.00 | 0.00 | 52 | 1014.7 |
| 20260902214159 | 86 | 203 | 8.0 | 8.0 | 0.00 | 0.00 | 0.00 | 52 | 1015.0 |
| 20260902213655 | 89 | 258 | 3.0 | 3.0 | 0.00 | 0.00 | 0.00 | 47 | 1014.7 |
| 20260902213149 | 89 | 206 | 5.0 | 7.0 | 0.00 | 0.00 | 0.00 | 47 | 1014.4 |
| 20260902212644 | 89 | 259 | 5.0 | 6.0 | 0.00 | 0.00 | 0.00 | 47 | 1014.7 |
| 20260902212140 | 89 | 232 | 4.0 | 5.0 | 0.00 | 0.00 | 0.00 | 48 | 1014.7 |
| 20260902211637 | 90 | 276 | 6.0 | 7.0 | 0.00 | 0.00 | 0.00 | 47 | 1014.8 |
| 20260902211137 | 90 | 351 | 3.0 | 5.0 | 0.00 | 0.00 | 0.00 | 47 | 1014.8 |
| 20260902210636 | 90 | 311 | 6.0 | 7.0 | 0.00 | 0.00 | 0.00 | 47 | 1015.3 |
| 20260902210131 | 90 | 283 | 6.0 | 7.0 | 0.00 | 0.00 | 0.00 | 47 | 1015.0 |
| 20260902205630 | 90 | 286 | 7.0 | 8.0 | 0.00 | 0.00 | 0.00 | 46 | 1014.8 |
| 20260902205125 | 90 | 296 | 8.0 | 9.0 | 0.00 | 0.00 | 0.00 | 45 | 1015.0 |
| 20260902204620 | 90 | 19 | 6.0 | 8.0 | 0.00 | 0.00 | 0.00 | 45 | 1015.0 |
| 20260902204115 | 90 | 209 | 7.0 | 7.0 | 0.00 | 0.00 | 0.00 | 45 | 1015.1 |
| 20260902203611 | 89 | 213 | 6.0 | 7.0 | 0.00 | 0.00 | 0.00 | 47 | 1015.0 |
| 20260902203110 | 90 | 320 | 4.0 | 5.0 | 0.00 | 0.00 | 0.00 | 46 | 1015.0 |
| 20260902202606 | 90 | 357 | 3.0 | 5.0 | 0.00 | 0.00 | 0.00 | 45 | 1015.4 |
| 20260902202102 | 91 | 331 | 3.0 | 3.0 | 0.00 | 0.00 | 0.00 | 45 | 1015.0 |
| 20260902201558 | 92 | 353 | 2.0 | 2.0 | 0.00 | 0.00 | 0.00 | 42 | 1015.1 |
| 20260902201057 | 92 | 335 | 7.0 | 9.0 | 0.00 | 0.00 | 0.00 | 43 | 1015.3 |
| 20260902200552 | 93 | 349 | 4.0 | 5.0 | 0.00 | 0.00 | 0.00 | 40 | 1015.0 |
| 20260902200048 | 92 | 216 | 3.0 | 5.0 | 0.00 | 0.00 | 0.00 | 42 | 1015.4 |
| 20260902195544 | 93 | 271 | 6.0 | 8.0 | 0.00 | 0.00 | 0.00 | 45 | 1015.6 |
| 20260902195042 | 93 | 335 | 6.0 | 7.0 | 0.00 | 0.00 | 0.00 | 44 | 1015.4 |
| 20260902194536 | 91 | 272 | 3.0 | 3.0 | 0.00 | 0.00 | 0.00 | 44 | 1015.5 |
| 20260902194032 | 92 | 223 | 7.0 | 7.0 | 0.00 | 0.00 | 0.00 | 46 | 1015.7 |
| 20260902193528 | 91 | 354 | 2.0 | 2.0 | 0.00 | 0.00 | 0.00 | 45 | 1015.8 |
| 20260902193027 | 91 | 275 | 4.0 | 5.0 | 0.00 | 0.00 | 0.00 | 48 | 1015.8 |
| 20260902192526 | 90 | 269 | 3.0 | 5.0 | 0.00 | 0.00 | 0.00 | 48 | 1015.8 |
| 20260902192025 | 90 | 260 | 5.0 | 7.0 | 0.00 | 0.00 | 0.00 | 48 | 1016.0 |
| 20260902191520 | 91 | 282 | 3.0 | 3.0 | 0.00 | 0.00 | 0.00 | 47 | 1016.1 |
| 20260902191015 | 91 | 339 | 4.0 | 6.0 | 0.00 | 0.00 | 0.00 | 47 | 1016.1 |
| 20260902190510 | 90 | 208 | 5.0 | 6.0 | 0.00 | 0.00 | 0.00 | 49 | 1016.6 |
| 20260902190006 | 90 | 261 | 2.0 | 2.0 | 0.00 | 0.00 | 0.00 | 48 | 1016.6 |
| 20260902185502 | 91 | 233 | 8.0 | 9.0 | 0.00 | 0.00 | 0.00 | 48 | 1016.4 |
| 20260902184956 | 91 | 315 | 3.0 | 3.0 | 0.00 | 0.00 | 0.00 | 49 | 1016.4 |
| 20260902184452 | 91 | 274 | 3.0 | 3.0 | 0.00 | 0.00 | 0.00 | 47 | 1016.6 |
| 20260902183947 | 91 | 250 | 3.0 | 3.0 | 0.00 | 0.00 | 0.00 | 49 | 1016.6 |
| 20260902183443 | 91 | 32 | 2.0 | 2.0 | 0.00 | 0.00 | 0.00 | 48 | 1016.6 |
| 20260902182939 | 91 | 14 | 2.0 | 2.0 | 0.00 | 0.00 | 0.00 | 48 | 1017.0 |
| 20260902182435 | 90 | 232 | 4.0 | 5.0 | 0.00 | 0.00 | 0.00 | 50 | 1017.1 |
| 20260902181932 | 89 | 0 | 3.0 | 3.0 | 0.00 | 0.00 | 0.00 | 49 | 1017.0 |
| 20260902181427 | 88 | 302 | 5.0 | 6.0 | 0.00 | 0.00 | 0.00 | 52 | 1017.1 |
| 20260902180926 | 89 | 54 | 5.0 | 7.0 | 0.00 | 0.00 | 0.00 | 51 | 1017.1 |
| 20260902180422 | 88 | 224 | 1.0 | 1.0 | 0.00 | 0.00 | 0.00 | 51 | 1017.0 |
| 20260902175918 | 89 | 268 | 3.0 | 3.0 | 0.00 | 0.00 | 0.00 | 52 | 1017.2 |
| 20260902175413 | 90 | 283 | 4.0 | 5.0 | 0.00 | 0.00 | 0.00 | 51 | 1017.0 |
| 20260902174908 | 90 | 20 | 2.0 | 2.0 | 0.00 | 0.00 | 0.00 | 50 | 1017.0 |
| 20260902174405 | 88 | 284 | 4.0 | 5.0 | 0.00 | 0.00 | 0.00 | 52 | 1017.2 |
| 20260902173901 | 88 | 208 | 2.0 | 3.0 | 0.00 | 0.00 | 0.00 | 51 | 1017.3 |
| 20260902173400 | 88 | 209 | 5.0 | 6.0 | 0.00 | 0.00 | 0.00 | 54 | 1017.3 |
| 20260902172855 | 89 | 142 | 2.0 | 3.0 | 0.00 | 0.00 | 0.00 | 51 | 1017.2 |
| 20260902172354 | 87 | 218 | 2.0 | 2.0 | 0.00 | 0.00 | 0.00 | 54 | 1017.4 |
| 20260902171849 | 87 | 257 | 4.0 | 5.0 | 0.00 | 0.00 | 0.00 | 55 | 1017.4 |
| 20260902171345 | 88 | 210 | 3.0 | 3.0 | 0.00 | 0.00 | 0.00 | 53 | 1017.4 |
| 20260902170841 | 87 | 113 | 3.0 | 3.0 | 0.00 | 0.00 | 0.00 | 52 | 1017.2 |
| 20260902170336 | 86 | 248 | 2.0 | 3.0 | 0.00 | 0.00 | 0.00 | 54 | 1017.4 |
| 20260902165832 | 87 | 227 | 4.0 | 5.0 | 0.00 | 0.00 | 0.00 | 55 | 1017.2 |
| 20260902165331 | 88 | 221 | 2.0 | 2.0 | 0.00 | 0.00 | 0.00 | 55 | 1017.3 |
| 20260902164826 | 87 | 58 | 2.0 | 2.0 | 0.00 | 0.00 | 0.00 | 53 | 1017.3 |
| 20260902164320 | 86 | 177 | 0.0 | 0.0 | 0.00 | 0.00 | 0.00 | 55 | 1017.6 |
| 20260902163814 | 85 | 216 | 3.0 | 3.0 | 0.00 | 0.00 | 0.00 | 58 | 1017.5 |
| 20260902163309 | 85 | 239 | 2.0 | 2.0 | 0.00 | 0.00 | 0.00 | 56 | 1017.5 |
| 20260902162807 | 85 | 239 | 3.0 | 3.0 | 0.00 | 0.00 | 0.00 | 58 | 1017.2 |
| 20260902162306 | 86 | 167 | 2.0 | 3.0 | 0.00 | 0.00 | 0.00 | 55 | 1017.4 |
| 20260902161802 | 87 | 208 | 5.0 | 6.0 | 0.00 | 0.00 | 0.00 | 56 | 1017.4 |
| 20260902161258 | 85 | 150 | 1.0 | 1.0 | 0.00 | 0.00 | 0.00 | 56 | 1017.6 |
| 20260902160754 | 85 | 222 | 5.0 | 6.0 | 0.00 | 0.00 | 0.00 | 57 | 1017.5 |
| 20260902160249 | 84 | 187 | 2.0 | 2.0 | 0.00 | 0.00 | 0.00 | 59 | 1017.4 |
| 20260902155747 | 84 | 218 | 5.0 | 7.0 | 0.00 | 0.00 | 0.00 | 57 | 1017.5 |
| 20260902155246 | 84 | 241 | 5.0 | 6.0 | 0.00 | 0.00 | 0.00 | 59 | 1017.4 |
| 20260902154741 | 84 | 208 | 4.0 | 6.0 | 0.00 | 0.00 | 0.00 | 58 | 1017.6 |
| 20260902154237 | 83 | 223 | 4.0 | 5.0 | 0.00 | 0.00 | 0.00 | 59 | 1017.4 |
| 20260902153735 | 84 | 200 | 5.0 | 6.0 | 0.00 | 0.00 | 0.00 | 58 | 1017.6 |
| 20260902153230 | 84 | 200 | 1.0 | 1.0 | 0.00 | 0.00 | 0.00 | 57 | 1017.3 |
| 20260902152726 | 84 | 214 | 1.0 | 1.0 | 0.00 | 0.00 | 0.00 | 59 | 1017.6 |
| 20260902152221 | 83 | 198 | 1.0 | 1.0 | 0.00 | 0.00 | 0.00 | 61 | 1017.7 |
| 20260902151717 | 83 | 195 | 4.0 | 5.0 | 0.00 | 0.00 | 0.00 | 60 | 1017.4 |
| 20260902151212 | 83 | 135 | 2.0 | 3.0 | 0.00 | 0.00 | 0.00 | 60 | 1017.5 |
| 20260902150707 | 83 | 204 | 3.0 | 3.0 | 0.00 | 0.00 | 0.00 | 61 | 1017.4 |
| 20260902150203 | 81 | 211 | 2.0 | 2.0 | 0.00 | 0.00 | 0.00 | 65 | 1017.5 |
| 20260902145702 | 81 | 215 | 3.0 | 3.0 | 0.00 | 0.00 | 0.00 | 63 | 1017.3 |
| 20260902145201 | 81 | 224 | 1.0 | 2.0 | 0.00 | 0.00 | 0.00 | 64 | 1017.2 |
| 20260902144658 | 80 | 191 | 2.0 | 3.0 | 0.00 | 0.00 | 0.00 | 64 | 1017.2 |
| 20260902144153 | 80 | 201 | 3.0 | 3.0 | 0.00 | 0.00 | 0.00 | 65 | 1017.2 |
| 20260902143648 | 80 | 176 | 0.0 | 0.0 | 0.00 | 0.00 | 0.00 | 66 | 1017.3 |
| 20260902143143 | 80 | 228 | 1.0 | 1.0 | 0.00 | 0.00 | 0.00 | 66 | 1017.4 |
| 20260902142639 | 80 | 184 | 0.0 | 0.0 | 0.00 | 0.00 | 0.00 | 66 | 1017.5 |
| 20260902142135 | 79 | 167 | 0.0 | 0.0 | 0.00 | 0.00 | 0.00 | 67 | 1017.7 |
| 20260902141634 | 78 | 147 | 0.0 | 0.0 | 0.00 | 0.00 | 0.00 | 68 | 1017.4 |
| 20260902141130 | 79 | 190 | 1.0 | 1.0 | 0.00 | 0.00 | 0.00 | 67 | 1017.4 |
| 20260902140625 | 79 | 190 | 0.0 | 0.0 | 0.00 | 0.00 | 0.00 | 66 | 1017.2 |
| 20260902140120 | 78 | 186 | 0.0 | 0.0 | 0.00 | 0.00 | 0.00 | 67 | 1017.2 |
| 20260902135619 | 78 | 180 | 0.0 | 1.0 | 0.00 | 0.00 | 0.00 | 67 | 1017.0 |
| 20260902135114 | 78 | 153 | 1.0 | 2.0 | 0.00 | 0.00 | 0.00 | 68 | 1016.8 |
| 20260902134610 | 77 | 182 | 0.0 | 1.0 | 0.00 | 0.00 | 0.00 | 69 | 1017.1 |
| 20260902134110 | 77 | 170 | 0.0 | 1.0 | 0.00 | 0.00 | 0.00 | 70 | 1016.7 |
| 20260902133605 | 76 | 166 | 0.0 | 0.0 | 0.00 | 0.00 | 0.00 | 71 | 1016.8 |
| 20260902133105 | 76 | 182 | 1.0 | 1.0 | 0.00 | 0.00 | 0.00 | 71 | 1016.9 |
| 20260902132600 | 75 | 145 | 1.0 | 1.0 | 0.00 | 0.00 | 0.00 | 72 | 1016.8 |
| 20260902132055 | 75 | 107 | 1.0 | 1.0 | 0.00 | 0.00 | 0.00 | 72 | 1016.7 |
| 20260902131551 | 75 | 147 | 1.0 | 1.0 | 0.00 | 0.00 | 0.00 | 71 | 1016.4 |
| 20260902131046 | 75 | 157 | 4.0 | 5.0 | 0.00 | 0.00 | 0.00 | 72 | 1016.7 |
| 20260902130542 | 75 | 142 | 1.0 | 1.0 | 0.00 | 0.00 | 0.00 | 73 | 1016.4 |
| 20260902130037 | 75 | 131 | 1.0 | 1.0 | 0.00 | 0.00 | 0.00 | 74 | 1016.6 |
| 20260902125533 | 75 | 186 | 0.0 | 0.0 | 0.00 | 0.00 | 0.00 | 74 | 1016.3 |
| 20260902125028 | 75 | 169 | 0.0 | 0.0 | 0.00 | 0.00 | 0.00 | 74 | 1016.6 |
| 20260902124526 | 74 | 178 | 0.0 | 1.0 | 0.00 | 0.00 | 0.00 | 74 | 1016.7 |
| 20260902124024 | 74 | 167 | 1.0 | 1.0 | 0.00 | 0.00 | 0.00 | 74 | 1016.4 |
| 20260902123521 | 74 | 206 | 1.0 | 1.0 | 0.00 | 0.00 | 0.00 | 75 | 1016.3 |
| 20260902123020 | 75 | 186 | 2.0 | 2.0 | 0.00 | 0.00 | 0.00 | 74 | 1016.2 |
| 20260902122515 | 75 | 208 | 1.0 | 2.0 | 0.00 | 0.00 | 0.00 | 74 | 1016.3 |
| 20260902122010 | 75 | 193 | 1.0 | 2.0 | 0.00 | 0.00 | 0.00 | 74 | 1016.2 |
| 20260902121505 | 75 | 216 | 0.0 | 0.0 | 0.00 | 0.00 | 0.00 | 74 | 1016.1 |
| 20260902121000 | 75 | 198 | 0.0 | 0.0 | 0.00 | 0.00 | 0.00 | 74 | 1016.4 |
| 20260902120456 | 75 | 219 | 1.0 | 1.0 | 0.00 | 0.00 | 0.00 | 74 | 1016.4 |